FENGYUN 1C DEB, 30462

Orbit data source: Space-Track

FENGYUN 1C DEB, 30462 is space debris in SSO originally from a launch on Mon, 10 May 1999 UTC launched from the Taiyaun Space Center, China (TSC). Fengyun 1C debris stems from the Chinese weather satellite Fengyun-1C, which was intentionally destroyed by a Chinese anti-satellite missile in 2007. This event dramatically increased the amount of space debris, with thousands of trackable fragments posing hazards to satellites and human spaceflight. The Fengyun 1C debris cloud has become a focal point in discussions about space sustainability and the need for international regulations to prevent the creation of new debris.

Loading next visibility...
Identifier
30462, 1999-025AFZ
Orbit
SSO
Country
Flag of CNCN / PRC
Related business
Manufacturer
Unknown
Mission
Spacecraft
Bus & Motor
Unknown
Mass
Unknown
Launch date (UTC)
1999-05-10 (27 years ago)
Launch vehicle
Unknown
Launch site
Taiyaun Space Center, China (TSC)
Object type
Payload
Rocket body
Debris
Shape & HBR
Unknown shape, 0.1 m
Radar Cross Section
Medium (>0.1 m² and <1 m²)

Expand to show TLE details & history
Last TLE update: 18 hours ago

TLE from 18 hours ago
0 FENGYUN 1C DEB
1 30462U 99025AFZ 26256.49049263  .00000397  00000-0  24419-3 0  9990
2 30462  98.8405 243.1022 0138971 198.3961 284.1836 14.06447060  6517
Epoch: 2026-09-13T11:46Z
TLE epoch observation values (Epoch: 2026-09-13T11:46:18.563Z)
Latitude
57.95545°
Longitude
-91.6499°
Altitude
857.908 km
Speed
7.441 km/s
True Right ascension
05h 09m 38s
True Declination
57° 48' 10"
Sunlit
Object was in daylight at epoch
Visualization orbit readout
Latitude
Unknown
Longitude
Unknown
Altitude
Unknown
Speed
Unknown
Apparent Right ascension
Unknown
Apparent Declination
Unknown
Sunlit
N/A
Visualization observer readout
Local Sidereal Time
22:16:07
Azimuth
Unknown
Elevation
Unknown
Doppler factor
Unknown
Orbital elements
Apogee altitude
969.448 km
Perigee altitude
768.027 km
Semi-major axis
7,246.875 km
Eccentricity
0.0139
Inclination
98.8405°
RAAN
243.1022°
Arg. of periapsis
198.3961°
True anomaly
282.63325°
Mean anomaly
284.1836°
Eccentric anomaly
283.40906°
Mean motion
3.51817 °/min
Orbital period
102.33 mins
BSTAR
0.00024419
Loading maneuver chart data...
Computing Atmospheric mass density...
Loading historical data...
Loading historical data...
Loading historical data...
Loading historical data...
Loading historical data...
Loading historical data...
Loading historical data...

Documentation

Showing up to 5 results
|